TimeCST,TemperatureF,Dew PointF,Humidity,Sea Level PressureIn,VisibilityMPH,Wind Direction,Wind SpeedMPH,Gust SpeedMPH,PrecipitationIn,Events,Conditions,WindDirDegrees,DateUTC
12:53 AM,37.0,23.0,57,30.05,10.0,West,12.7,-,N/A,,Overcast,270,2013-11-26 06:53:00
1:53 AM,34.0,21.9,61,30.05,10.0,NW,19.6,25.3,N/A,,Overcast,320,2013-11-26 07:53:00
2:53 AM,33.1,19.9,59,30.08,10.0,NNW,12.7,-,N/A,,Overcast,330,2013-11-26 08:53:00
3:53 AM,32.0,19.0,59,30.09,10.0,NNW,17.3,-,N/A,,Overcast,330,2013-11-26 09:53:00
4:53 AM,30.9,19.0,61,30.09,10.0,NW,13.8,-,N/A,,Overcast,310,2013-11-26 10:53:00
5:53 AM,30.9,19.0,61,30.08,10.0,WNW,12.7,-,N/A,,Overcast,300,2013-11-26 11:53:00
6:53 AM,30.0,17.1,59,30.10,10.0,NW,13.8,-,N/A,,Overcast,320,2013-11-26 12:53:00
7:53 AM,30.0,17.1,59,30.12,10.0,WNW,9.2,-,0.00,,Overcast,290,2013-11-26 13:53:00
8:23 AM,28.4,19.4,69,30.10,3.0,NW,19.6,25.3,0.00,Snow,Light Snow,320,2013-11-26 14:23:00
8:26 AM,26.6,19.4,74,30.10,1.8,NW,19.6,25.3,0.00,Snow,Light Snow,320,2013-11-26 14:26:00
8:37 AM,26.6,19.4,74,30.11,3.0,NW,18.4,24.2,0.00,Snow,Light Snow,320,2013-11-26 14:37:00
8:53 AM,27.0,14.0,58,30.14,10.0,NW,23.0,29.9,0.00,,Overcast,320,2013-11-26 14:53:00
9:53 AM,28.0,12.0,51,30.15,10.0,NW,21.9,28.8,N/A,,Scattered Clouds,310,2013-11-26 15:53:00
10:53 AM,25.0,9.0,51,30.18,10.0,NW,20.7,29.9,0.00,,Mostly Cloudy,310,2013-11-26 16:53:00
11:53 AM,24.1,9.0,53,30.19,10.0,NNW,23.0,-,0.00,,Overcast,340,2013-11-26 17:53:00
12:53 PM,26.1,1.0,34,30.19,10.0,NNW,21.9,-,0.00,,Clear,340,2013-11-26 18:53:00
1:53 PM,25.0,1.9,37,30.19,10.0,NW,23.0,31.1,N/A,,Scattered Clouds,320,2013-11-26 19:53:00
2:53 PM,23.0,3.0,42,30.24,10.0,NNW,19.6,25.3,N/A,,Mostly Cloudy,340,2013-11-26 20:53:00
3:53 PM,21.9,5.0,48,30.25,10.0,NNW,15.0,21.9,N/A,,Overcast,340,2013-11-26 21:53:00
4:53 PM,19.9,3.9,50,30.28,10.0,NNW,12.7,20.7,N/A,,Mostly Cloudy,330,2013-11-26 22:53:00
5:53 PM,19.9,3.9,50,30.30,10.0,NNW,15.0,-,N/A,,Mostly Cloudy,330,2013-11-26 23:53:00
6:53 PM,19.0,3.9,52,30.32,10.0,NNW,13.8,-,N/A,,Scattered Clouds,340,2013-11-27 00:53:00
7:53 PM,18.0,3.0,52,30.34,10.0,NNW,12.7,-,N/A,,Clear,340,2013-11-27 01:53:00
8:53 PM,17.1,3.0,54,30.35,10.0,NNW,10.4,19.6,N/A,,Clear,340,2013-11-27 02:53:00
9:53 PM,16.0,3.0,57,30.36,10.0,North,11.5,-,N/A,,Clear,350,2013-11-27 03:53:00
10:53 PM,15.1,3.0,59,30.37,10.0,NNW,8.1,-,N/A,,Clear,340,2013-11-27 04:53:00
11:53 PM,15.1,3.0,59,30.37,10.0,NNW,11.5,-,N/A,,Clear,340,2013-11-27 05:53:00